This demonstration page uses our WeatherBlox Daily Observations layout. Learn more.

Left ArrowRight Arrow

Hourly Observations for October 25, 2015

Temp ( °F °C ) Dew Point ( °F °C ) Humidity (%) Winds ( mph kmh ) Pressure ( in mb ) Visibility ( mi km ) Precip ( " mm )
12:15 am 00:15 Clear 42 5.6 37 2.9 83 83 SE 3 6 30.27 1025 10 16 N/A
12:35 am 00:35 Clear 41 4.8 37 2.9 88 88 SE 3 6 30.30 1026 10 16 N/A
12:55 am 00:55 Clear 40 4.7 36 2 83 83 SE 3 6 30.30 1026 10 16 N/A
1:15 am 01:15 Clear 40 4.2 36 2.2 87 87 SSE 5 7 30.30 1026 10 16 N/A
1:35 am 01:35 Clear 40 4.5 35 1.5 81 81 SSE 5 7 30.30 1026 10 16 N/A
1:55 am 01:55 Clear 40 4.4 34 1.1 79 79 SE 3 6 30.30 1026 10 16 N/A
2:15 am 02:15 Clear 39 4.1 34 1.2 82 82 SE 3 6 30.30 1026 10 16 N/A
2:35 am 02:35 Mostly Cloudy with Haze 38 3.2 33 0.7 84 84 SSE 3 6 30.30 1026 1 1 N/A
2:55 am 02:55 Clear 40 4.7 33 0.5 74 74 SE 3 6 30.30 1026 10 16 N/A
3:15 am 03:15 Clear 41 5.2 33 0.5 72 72 SE 6 9 30.30 1026 10 16 N/A
3:35 am 03:35 Clear 41 4.9 33 0.5 73 73 SE 6 9 30.30 1026 10 16 N/A
3:55 am 03:55 Clear 41 4.9 33 0.5 73 73 SE 5 7 30.30 1026 10 16 N/A
4:15 am 04:15 Clear 40 4.3 33 0.5 77 77 SE 5 7 30.30 1026 10 16 N/A
4:35 am 04:35 Clear 40 4.3 33 0.7 78 78 SE 5 7 30.30 1026 10 16 N/A
4:55 am 04:55 Clear 39 4 33 0.6 79 79 SE 6 9 30.30 1026 10 16 N/A
5:15 am 05:15 Clear 37 2.7 32 0 83 83 Calm 30.30 1026 10 16 N/A
5:35 am 05:35 Clear 35 1.8 32 0 88 88 ESE 5 7 30.33 1027 10 16 N/A
5:55 am 05:55 Clear 36 2.1 32 0 86 86 SE 6 9 30.33 1027 10 16 N/A
6:15 am 06:15 Clear 39 3.9 34 0.9 81 81 SE 6 9 30.30 1026 10 16 N/A
6:35 am 06:35 Clear 39 3.7 34 1.3 85 85 SE 7 11 30.30 1026 10 16 N/A
6:55 am 06:55 Clear 40 4.7 35 1.5 80 80 SE 6 9 30.30 1026 10 16 N/A
7:15 am 07:15 Clear 41 5 35 1.6 79 79 SE 5 7 30.30 1026 10 16 N/A
7:35 am 07:35 Clear 40 4.7 35 1.4 79 79 SE 6 9 30.30 1026 10 16 N/A
7:55 am 07:55 Clear 38 3.5 34 0.9 83 83 SSE 6 9 30.30 1026 10 16 N/A
8:15 am 08:15 Sunny 41 4.9 36 2 82 82 SE 6 9 30.33 1027 10 16 N/A
8:35 am 08:35 Sunny 43 6.2 37 3 80 80 SE 3 6 30.30 1026 10 16 N/A
8:55 am 08:55 Sunny 44 6.6 38 3.5 81 81 SE 3 6 30.30 1026 10 16 N/A
9:15 am 09:15 Sunny 47 8.2 41 5 80 80 SE 3 6 30.30 1026 10 16 N/A
9:35 am 09:35 Sunny 49 9.3 42 5.3 76 76 SSE 5 7 30.30 1026 10 16 N/A
9:55 am 09:55 Sunny 51 10.3 43 5.9 74 74 SSE 5 7 30.27 1025 10 16 N/A
10:15 am 10:15 Sunny 53 11.5 43 6.1 70 70 S 7 11 30.27 1025 10 16 N/A
10:35 am 10:35 Sunny 55 12.9 42 5.7 62 62 S 8 13 30.24 1024 10 16 N/A
10:55 am 10:55 Sunny 57 13.9 41 5 55 55 SW 14 22 30.24 1024 10 16 N/A
11:15 am 11:15 Sunny 57 14.1 41 5 55 55 SSW 12 19 30.24 1024 10 16 N/A
11:35 am 11:35 Sunny 59 15 41 5 51 51 SSW 15 24 30.24 1024 10 16 N/A
11:55 am 11:55 Sunny 60 15.8 40 4.7 48 48 SW 16 26 30.21 1023 10 16 N/A
12:15 pm 12:15 Sunny 62 16.4 41 5 47 47 SW 14 22 30.21 1023 10 16 N/A
12:35 pm 12:35 Sunny 62 16.7 41 5 46 46 SSW 14 22 30.18 1022 10 16 N/A
12:55 pm 12:55 Sunny 63 17.2 42 5.7 47 47 SSW 16 26 30.18 1022 10 16 N/A
1:15 pm 13:15 Sunny 64 18 43 5.9 45 45 S 17 28 30.15 1021 10 16 N/A
1:35 pm 13:35 Sunny 66 18.7 43 5.9 43 43 S 14 22 30.12 1020 10 16 N/A
1:55 pm 13:55 Sunny 67 19.5 41 4.9 38 38 S 16 26 30.12 1020 10 16 N/A
2:15 pm 14:15 Sunny 68 20 40 4.3 36 36 SSW 17 28 30.09 1019 10 16 N/A
2:35 pm 14:35 Sunny 69 20.3 40 4.3 35 35 SSW 14 22 30.09 1019 10 16 N/A
2:55 pm 14:55 Sunny 69 20.5 39 3.9 34 34 SSW 16 26 30.09 1019 10 16 N/A
3:15 pm 15:15 Sunny 68 20.2 39 4.1 35 35 S 15 24 30.09 1019 10 16 N/A
3:35 pm 15:35 Sunny 69 20.5 40 4.3 35 35 S 14 22 30.09 1019 10 16 N/A
3:55 pm 15:55 Sunny 69 20.5 40 4.3 35 35 S 10 17 30.06 1018 10 16 N/A
4:15 pm 16:15 Sunny 69 20.3 39 3.7 34 34 S 16 26 30.06 1018 10 16 N/A
4:35 pm 16:35 Sunny 68 20.2 38 3.5 33 33 S 14 22 30.06 1018 10 16 N/A
4:55 pm 16:55 Sunny 68 19.8 37 2.8 33 33 S 15 24 30.06 1018 10 16 N/A
5:15 pm 17:15 Sunny 67 19.3 37 2.8 34 34 SSE 16 26 30.06 1018 10 16 N/A
5:35 pm 17:35 Sunny 66 18.7 37 2.6 34 34 S 15 24 30.06 1018 10 16 N/A
5:55 pm 17:55 Sunny 65 18.2 37 2.7 36 36 SSE 14 22 30.06 1018 10 16 N/A
6:15 pm 18:15 Sunny 62 16.9 38 3.4 41 41 SSE 12 19 30.09 1019 10 16 N/A
6:35 pm 18:35 Sunny 60 15.6 38 3.4 44 44 SSE 10 17 30.09 1019 10 16 N/A
6:55 pm 18:55 Clear 58 14.2 38 3.4 48 48 SSE 12 19 30.12 1020 10 16 N/A
7:15 pm 19:15 Clear 57 14 38 3.1 48 48 SSE 10 17 30.12 1020 10 16 N/A
7:35 pm 19:35 Clear 56 13.4 38 3.2 50 50 SSE 9 15 30.12 1020 10 16 N/A
7:55 pm 19:55 Clear 55 12.6 38 3.3 53 53 SSE 9 15 30.15 1021 10 16 N/A
8:15 pm 20:15 Clear 53 11.9 38 3.5 57 57 SSE 8 13 30.15 1021 10 16 N/A
8:35 pm 20:35 Clear 54 12.1 38 3.3 55 55 SSE 9 15 30.15 1021 10 16 N/A
8:55 pm 20:55 Clear 53 11.5 38 3.5 58 58 SSE 8 13 30.15 1021 10 16 N/A
9:15 pm 21:15 Clear 52 11.2 38 3.5 59 59 SSE 7 11 30.18 1022 10 16 N/A
9:35 pm 21:35 Clear 51 10.5 38 3.5 62 62 SSE 7 11 30.18 1022 10 16 N/A
9:55 pm 21:55 Clear 53 11.6 38 3.3 57 57 S 9 15 30.15 1021 10 16 N/A
10:15 pm 22:15 Clear 52 11 38 3.5 60 60 S 8 13 30.18 1022 10 16 N/A
10:35 pm 22:35 Clear 52 11.3 38 3.3 58 58 S 9 15 30.18 1022 10 16 N/A
10:55 pm 22:55 Clear 51 10.7 38 3.1 60 60 S 9 15 30.18 1022 10 16 N/A
11:15 pm 23:15 Clear 51 10.7 37 3 59 59 SSE 7 11 30.18 1022 10 16 N/A
11:35 pm 23:35 Clear 50 10.2 38 3.1 62 62 SSE 7 11 30.18 1022 10 16 N/A
11:55 pm 23:55 Clear 49 9.6 38 3.2 65 65 S 7 11 30.18 1022 10 16 N/A

Powered by AerisWeather